| time (UTC) | temp F | wind direction | speed knots | gust knots | rain 1hr in | rain 24hr in | rain mn in | humidity % | barometer mb |
| 20260906024553 | 61 | 199 | 0.0 | 0.0 | 0.00 | 0.00 | 0.00 | 74 | 1016.8 |
| 20260906023041 | 62 | 199 | 0.0 | 0.0 | 0.00 | 0.00 | 0.00 | 73 | 1016.9 |
| 20260906021534 | 62 | 199 | 0.0 | 0.0 | 0.00 | 0.00 | 0.00 | 73 | 1017.0 |
| 20260906020033 | 63 | 199 | 0.0 | 0.0 | 0.00 | 0.00 | 0.00 | 72 | 1016.8 |
| 20260906014533 | 63 | 199 | 0.0 | 0.9 | 0.00 | 0.00 | 0.00 | 72 | 1016.7 |
| 20260906013033 | 64 | 199 | 0.0 | 0.0 | 0.00 | 0.00 | 0.00 | 70 | 1016.5 |
| 20260906011533 | 64 | 194 | 0.0 | 0.0 | 0.00 | 0.00 | 0.00 | 71 | 1016.5 |
| 20260906010044 | 64 | 194 | 0.0 | 1.7 | 0.00 | 0.00 | 0.00 | 71 | 1016.4 |
| 20260906004531 | 65 | 195 | 0.9 | 3.5 | 0.00 | 0.00 | 0.00 | 70 | 1016.4 |
| 20260906003030 | 65 | 183 | 0.9 | 3.5 | 0.00 | 0.00 | 0.00 | 67 | 1016.5 |
| 20260906001535 | 66 | 161 | 0.9 | 2.6 | 0.00 | 0.00 | 0.00 | 67 | 1016.5 |
| 20260906000030 | 66 | 148 | 0.0 | 2.6 | 0.00 | 0.00 | 0.00 | 68 | 1016.4 |
| 20260905234529 | 66 | 178 | 0.0 | 2.6 | 0.00 | 0.00 | 0.00 | 68 | 1016.5 |
| 20260905233028 | 66 | 159 | 0.9 | 3.5 | 0.00 | 0.00 | 0.00 | 69 | 1016.5 |
| 20260905231528 | 66 | 138 | 0.0 | 2.6 | 0.00 | 0.00 | 0.00 | 75 | 1016.4 |
| 20260905230033 | 65 | 166 | 0.9 | 4.3 | 0.00 | 0.00 | 0.00 | 76 | 1016.4 |
| 20260905224527 | 65 | 144 | 1.7 | 4.3 | 0.00 | 0.00 | 0.00 | 75 | 1016.5 |
| 20260905223028 | 67 | 167 | 0.9 | 4.3 | 0.00 | 0.00 | 0.00 | 69 | 1016.6 |
| 20260905221527 | 67 | 167 | 2.6 | 5.2 | 0.00 | 0.00 | 0.00 | 70 | 1016.6 |
| 20260905220028 | 68 | 163 | 1.7 | 3.5 | 0.00 | 0.00 | 0.00 | 67 | 1016.7 |
| 20260905214525 | 68 | 190 | 0.9 | 5.2 | 0.00 | 0.00 | 0.00 | 65 | 1016.7 |
| 20260905213024 | 68 | 153 | 1.7 | 5.2 | 0.00 | 0.00 | 0.00 | 67 | 1016.8 |
| 20260905211542 | 69 | 229 | 0.9 | 4.3 | 0.00 | 0.00 | 0.00 | 65 | 1017.0 |
| 20260905210022 | 69 | 189 | 1.7 | 3.5 | 0.00 | 0.00 | 0.00 | 64 | 1016.9 |
| 20260905204519 | 68 | 195 | 0.9 | 5.2 | 0.00 | 0.00 | 0.00 | 68 | 1017.1 |
| 20260905203016 | 67 | 178 | 0.9 | 7.0 | 0.00 | 0.00 | 0.00 | 73 | 1017.2 |
| 20260905201514 | 66 | 282 | 0.9 | 4.3 | 0.00 | 0.00 | 0.00 | 77 | 1017.2 |
| 20260905200013 | 64 | 215 | 0.9 | 4.3 | 0.00 | 0.00 | 0.00 | 75 | 1017.4 |
| 20260905194512 | 64 | 180 | 1.7 | 4.3 | 0.00 | 0.00 | 0.00 | 77 | 1017.4 |
| 20260905193010 | 65 | 286 | 0.9 | 3.5 | 0.00 | 0.00 | 0.00 | 77 | 1017.5 |
| 20260905191509 | 65 | 246 | 0.9 | 4.3 | 0.00 | 0.00 | 0.00 | 77 | 1017.6 |
| 20260905190005 | 64 | 199 | 0.9 | 4.3 | 0.00 | 0.00 | 0.00 | 79 | 1017.6 |
| 20260905184502 | 63 | 215 | 1.7 | 5.2 | 0.00 | 0.00 | 0.00 | 81 | 1017.8 |
| 20260905183059 | 63 | 190 | 1.7 | 4.3 | 0.00 | 0.00 | 0.00 | 79 | 1017.7 |
| 20260905181556 | 62 | 191 | 0.9 | 5.2 | 0.00 | 0.00 | 0.00 | 82 | 1017.9 |
| 20260905174554 | 62 | 184 | 1.7 | 5.2 | 0.00 | 0.00 | 0.00 | 81 | 1017.8 |
| 20260905173058 | 61 | 148 | 0.0 | 3.5 | 0.00 | 0.00 | 0.00 | 83 | 1017.7 |
| 20260905171541 | 60 | 170 | 0.9 | 3.5 | 0.00 | 0.00 | 0.00 | 85 | 1017.7 |
| 20260905170040 | 59 | 105 | 2.6 | 6.1 | 0.00 | 0.00 | 0.00 | 85 | 1017.8 |
| 20260905164536 | 59 | 150 | 0.0 | 2.6 | 0.00 | 0.00 | 0.00 | 87 | 1017.9 |
| 20260905163033 | 58 | 238 | 0.0 | 1.7 | 0.00 | 0.00 | 0.00 | 89 | 1018.0 |
| 20260905161532 | 58 | 195 | 0.0 | 1.7 | 0.00 | 0.00 | 0.00 | 90 | 1017.7 |
| 20260905160033 | 57 | 195 | 0.0 | 1.7 | 0.00 | 0.00 | 0.00 | 91 | 1017.7 |
| 20260905154525 | 57 | 195 | 0.0 | 0.9 | 0.00 | 0.00 | 0.00 | 92 | 1017.6 |
| 20260905153023 | 57 | 188 | 0.0 | 4.3 | 0.00 | 0.00 | 0.00 | 92 | 1017.5 |
| 20260905151521 | 56 | 181 | 0.0 | 0.9 | 0.00 | 0.00 | 0.00 | 93 | 1017.4 |
| 20260905150020 | 56 | 259 | 0.0 | 1.7 | 0.00 | 0.00 | 0.00 | 94 | 1017.4 |
| 20260905144514 | 56 | 259 | 0.0 | 0.0 | 0.00 | 0.00 | 0.00 | 94 | 1017.6 |
| 20260905143013 | 55 | 259 | 0.0 | 0.9 | 0.00 | 0.00 | 0.00 | 94 | 1017.6 |
| 20260905141523 | 55 | 259 | 0.0 | 0.9 | 0.00 | 0.00 | 0.00 | 94 | 1017.5 |
| 20260905140012 | 55 | 259 | 0.0 | 0.0 | 0.00 | 0.00 | 0.00 | 93 | 1017.3 |
| 20260905134509 | 55 | 259 | 0.0 | 0.9 | 0.00 | 0.00 | 0.00 | 94 | 1017.3 |
| 20260905133006 | 55 | 259 | 0.0 | 0.0 | 0.00 | 0.00 | 0.00 | 93 | 1017.2 |
| 20260905131506 | 54 | 259 | 0.0 | 0.0 | 0.00 | 0.00 | 0.00 | 93 | 1017.1 |
| 20260905130006 | 54 | 259 | 0.0 | 0.9 | 0.00 | 0.00 | 0.00 | 93 | 1017.1 |
| 20260905124510 | 54 | 259 | 0.0 | 0.9 | 0.00 | 0.00 | 0.00 | 94 | 1017.1 |
| 20260905123006 | 54 | 259 | 0.0 | 0.0 | 0.00 | 0.00 | 0.00 | 93 | 1017.0 |
| 20260905121502 | 54 | 259 | 0.0 | 0.0 | 0.00 | 0.00 | 0.00 | 93 | 1016.9 |
| 20260905120002 | 54 | 259 | 0.0 | 0.9 | 0.00 | 0.00 | 0.00 | 93 | 1016.8 |
| 20260905114501 | 54 | 259 | 0.9 | 1.7 | 0.00 | 0.00 | 0.00 | 93 | 1016.8 |
| 20260905113100 | 54 | 259 | 0.0 | 0.0 | 0.00 | 0.00 | 0.00 | 93 | 1016.9 |
| 20260905113001 | 54 | 259 | 0.0 | 0.9 | 0.00 | 0.00 | 0.00 | 93 | 1016.8 |
| 20260905111600 | 54 | 259 | 0.9 | 1.7 | 0.00 | 0.00 | 0.00 | 93 | 1016.9 |
| 20260905110111 | 54 | 259 | 0.0 | 1.7 | 0.00 | 0.00 | 0.00 | 93 | 1016.8 |
| 20260905104559 | 54 | 258 | 0.0 | 0.0 | 0.00 | 0.00 | 0.00 | 93 | 1016.6 |
| 20260905103059 | 53 | 258 | 0.0 | 0.0 | 0.00 | 0.00 | 0.00 | 93 | 1016.7 |
| 20260905101607 | 53 | 258 | 0.0 | 0.0 | 0.00 | 0.00 | 0.00 | 92 | 1016.7 |
| 20260905100057 | 54 | 258 | 0.0 | 0.0 | 0.00 | 0.00 | 0.00 | 92 | 1016.5 |
| 20260905094555 | 54 | 258 | 0.0 | 0.0 | 0.00 | 0.00 | 0.00 | 92 | 1016.5 |
| 20260905093057 | 54 | 258 | 0.0 | 0.0 | 0.00 | 0.00 | 0.00 | 92 | 1016.6 |
| 20260905091603 | 54 | 258 | 0.0 | 0.0 | 0.00 | 0.00 | 0.00 | 92 | 1016.5 |
| 20260905090051 | 54 | 258 | 0.0 | 0.9 | 0.00 | 0.00 | 0.00 | 92 | 1016.4 |
| 20260905084550 | 54 | 258 | 0.0 | 0.9 | 0.00 | 0.00 | 0.00 | 92 | 1016.3 |
| 20260905083049 | 54 | 258 | 0.0 | 0.9 | 0.00 | 0.00 | 0.00 | 92 | 1016.3 |
| 20260905081548 | 54 | 258 | 0.0 | 0.9 | 0.00 | 0.00 | 0.00 | 91 | 1016.3 |
| 20260905080050 | 54 | 258 | 0.0 | 0.0 | 0.00 | 0.00 | 0.00 | 91 | 1016.3 |
| 20260905074546 | 55 | 258 | 0.0 | 0.0 | 0.00 | 0.00 | 0.00 | 91 | 1016.2 |
| 20260905073044 | 55 | 258 | 0.0 | 0.0 | 0.00 | 0.00 | 0.00 | 91 | 1016.4 |
| 20260905071543 | 55 | 258 | 0.0 | 0.0 | 0.00 | 0.00 | 0.00 | 90 | 1016.2 |
| 20260905070044 | 55 | 258 | 0.0 | 0.0 | 0.00 | 0.00 | 0.00 | 91 | 1016.1 |
| 20260905064543 | 55 | 258 | 0.0 | 0.0 | 0.00 | 0.00 | 0.00 | 90 | 1015.9 |
| 20260905063041 | 56 | 258 | 0.0 | 0.9 | 0.00 | 0.00 | 0.00 | 90 | 1015.8 |
| 20260905061538 | 56 | 258 | 0.0 | 0.0 | 0.00 | 0.00 | 0.00 | 91 | 1015.6 |
| 20260905060038 | 56 | 258 | 0.0 | 0.9 | 0.00 | 0.00 | 0.00 | 90 | 1015.7 |
| 20260905054549 | 56 | 258 | 0.0 | 0.9 | 0.00 | 0.00 | 0.00 | 90 | 1015.8 |
| 20260905053036 | 56 | 258 | 0.0 | 0.0 | 0.00 | 0.00 | 0.00 | 90 | 1015.8 |
| 20260905051536 | 56 | 258 | 0.0 | 0.9 | 0.00 | 0.00 | 0.00 | 90 | 1015.9 |
| 20260905050034 | 56 | 258 | 0.0 | 0.0 | 0.00 | 0.00 | 0.00 | 90 | 1015.9 |
| 20260905044535 | 56 | 258 | 0.0 | 0.0 | 0.00 | 0.00 | 0.00 | 89 | 1016.1 |
| 20260905043034 | 56 | 258 | 0.0 | 0.0 | 0.00 | 0.00 | 0.00 | 89 | 1016.0 |
| 20260905041533 | 56 | 258 | 0.0 | 0.0 | 0.00 | 0.00 | 0.00 | 88 | 1015.9 |
| 20260905040041 | 57 | 258 | 0.0 | 0.0 | 0.00 | 0.00 | 0.00 | 87 | 1015.9 |
| 20260905034533 | 57 | 258 | 0.0 | 0.0 | 0.00 | 0.00 | 0.00 | 85 | 1015.7 |
| 20260905033031 | 58 | 258 | 0.0 | 0.0 | 0.00 | 0.00 | 0.00 | 84 | 1015.6 |
| 20260905031530 | 58 | 258 | 0.0 | 0.0 | 0.00 | 0.00 | 0.00 | 82 | 1015.4 |
| 20260905030028 | 59 | 258 | 0.0 | 0.0 | 0.00 | 0.00 | 0.00 | 81 | 1015.2 |